Weather History for Oscoda, MI

Change the Weather History Date:

Wednesday, June 11, 2014

  Actual Average Record
Temperature  
Mean Temperature 58 °F -  
Max Temperature 60 °F 69 °F 91 °F (1999)
Min Temperature 56 °F 50 °F 39 °F (2006)
Degree Days  
Heating Degree Days 7    
Growing Degree Days 8 (Base 50)    
Moisture  
Dew Point 53 °F    
Average Humidity 86    
Maximum Humidity 96    
Minimum Humidity 61    
Precipitation  
Precipitation 0.05 in - - ()
Sea Level Pressure  
Sea Level Pressure 29.82 in    
Wind  
Wind Speed 5 mph (NE)    
Max Wind Speed 9 mph    
Max Gust Speed -    
Visibility 6 miles    
Events Rain    
Averages and records for this station are not official NWS values.
T = Trace of Precipitation, MM = Missing Value Source: NWS Daily Summary

Daily Weather History Graph

Daily Weather History Graph

Search for Another Location

Airport:

Trip Planner

Search our weather history database for the weather conditions in past years. The results will help you decide how hot, cold, wet, or windy it might be!

Date:

Astronomy

Jun. 11, 2014 Rise Set
Actual Time 5:48 AM EDT 9:18 PM EDT
Civil Twilight 5:12 AM EDT 9:54 PM EDT
Nautical Twilight 4:24 AM EDT 10:42 PM EDT
Astronomical Twilight 3:22 AM EDT 11:44 PM EDT
Moon 7:42 PM EDT (6/11) 4:42 AM EDT (6/11)
Length of Visible Light 16h 42m
Length of Day
15h 29m
Waxing Gibbous, 97% of the Moon is Illuminated
Jun 11
Waxing Gibbous
Jun 13
Full
Jun 19
Last Quarter
Jun 27
New
Jul 5
First Quarter

Hourly Weather History & Observations

Time (EDT) Temp. Dew Point Humidity Pressure Visibility Wind Dir Wind Speed Gust Speed Precip Events Conditions
12:13 AM 59.2 °F 46.2 °F 62% 29.94 in 10.0 mi Calm Calm - N/A   Scattered Clouds
12:33 AM 59.4 °F 46.6 °F 63% 29.94 in 10.0 mi NE 3.5 mph - N/A   Scattered Clouds
12:53 AM 59.7 °F 46.4 °F 61% 29.94 in 10.0 mi NE 5.8 mph - N/A   Scattered Clouds
1:14 AM 59.2 °F 46.4 °F 63% 29.93 in 10.0 mi NE 5.8 mph - N/A   Clear
1:33 AM 58.8 °F 46.6 °F 64% 29.93 in 10.0 mi ENE 6.9 mph - N/A   Clear
1:53 AM 58.6 °F 46.4 °F 64% 29.92 in 10.0 mi ENE 4.6 mph - N/A   Scattered Clouds
2:14 AM 58.6 °F 46.0 °F 63% 29.92 in 10.0 mi NE 5.8 mph - N/A   Scattered Clouds
2:33 AM 58.5 °F 45.7 °F 62% 29.91 in 10.0 mi NE 8.1 mph - N/A   Scattered Clouds
2:53 AM 57.7 °F 46.6 °F 66% 29.90 in 10.0 mi NE 5.8 mph - N/A   Clear
3:14 AM 57.4 °F 47.3 °F 69% 29.90 in 10.0 mi NE 4.6 mph - N/A   Clear
3:33 AM 57.4 °F 47.7 °F 70% 29.90 in 10.0 mi NE 4.6 mph - N/A   Clear
3:53 AM 57.4 °F 47.8 °F 70% 29.89 in 10.0 mi NE 5.8 mph - N/A   Clear
4:14 AM 57.4 °F 48.2 °F 71% 29.88 in 10.0 mi NNE 4.6 mph - N/A   Clear
4:33 AM 57.4 °F 48.4 °F 72% 29.88 in 10.0 mi NE 4.6 mph - N/A   Clear
4:53 AM 57.2 °F 48.4 °F 72% 29.87 in 10.0 mi NE 5.8 mph - N/A   Clear
5:14 AM 57.2 °F 48.4 °F 72% 29.87 in 10.0 mi NE 4.6 mph - N/A   Clear
5:33 AM 57.2 °F 49.1 °F 74% 29.86 in 10.0 mi NE 5.8 mph - N/A   Scattered Clouds
5:53 AM 57.2 °F 49.6 °F 76% 29.86 in 10.0 mi NE 5.8 mph - N/A   Mostly Cloudy
6:14 AM 57.2 °F 50.9 °F 79% 29.86 in 10.0 mi NE 6.9 mph - N/A Rain Light Rain
6:33 AM 57.0 °F 51.3 °F 81% 29.86 in 10.0 mi NE 4.6 mph - N/A Rain Light Rain
6:53 AM 57.2 °F 52.2 °F 83% 29.87 in 10.0 mi ENE 3.5 mph - N/A Rain Light Rain
7:14 AM 56.8 °F 52.7 °F 86% 29.86 in 10.0 mi NE 4.6 mph - N/A Rain Light Rain
7:33 AM 56.5 °F 52.9 °F 88% 29.87 in 10.0 mi ENE 5.8 mph - N/A Rain Light Rain
7:53 AM 56.7 °F 53.6 °F 89% 29.87 in 10.0 mi ENE 4.6 mph - 0.01 in Rain Light Rain
8:14 AM 57.2 °F 53.8 °F 88% 29.86 in 10.0 mi NE 6.9 mph - N/A Rain Light Rain
8:33 AM 57.2 °F 53.8 °F 88% 29.86 in 10.0 mi NE 5.8 mph - N/A Rain Light Rain
8:53 AM 57.4 °F 54.1 °F 89% 29.86 in 10.0 mi NE 4.6 mph - 0.01 in Rain Light Rain
9:14 AM 57.7 °F 54.3 °F 88% 29.85 in 10.0 mi ENE 5.8 mph - N/A Rain Light Rain
9:33 AM 57.2 °F 54.1 °F 89% 29.85 in 10.0 mi ENE 5.8 mph - N/A   Light Drizzle
9:54 AM 56.3 °F 53.6 °F 91% 29.85 in 7.0 mi ENE 4.6 mph - 0.01 in Rain Rain
10:14 AM 56.3 °F 53.6 °F 91% 29.85 in 7.0 mi ENE 6.9 mph - N/A   Drizzle
10:33 AM 56.1 °F 53.8 °F 92% 29.84 in 7.0 mi NE 4.6 mph - N/A Rain Light Rain
10:54 AM 56.1 °F 54.0 °F 92% 29.84 in 7.0 mi ENE 5.8 mph - N/A   Drizzle
11:14 AM 56.3 °F 54.3 °F 93% 29.84 in 5.0 mi NE 5.8 mph - 0.02 in Rain Light Rain
11:33 AM 56.3 °F 54.3 °F 93% 29.84 in 7.0 mi NE 5.8 mph - 0.02 in   Overcast
11:54 AM 56.3 °F 54.5 °F 94% 29.84 in 5.0 mi NE 8.1 mph - 0.02 in   Overcast
12:14 PM 56.3 °F 54.5 °F 94% 29.83 in 4.0 mi NE 6.9 mph - N/A   Overcast
12:33 PM 56.5 °F 54.7 °F 94% 29.83 in 4.0 mi NE 6.9 mph - N/A   Overcast
12:54 PM 56.3 °F 54.5 °F 94% 29.82 in 4.0 mi NE 6.9 mph - N/A   Overcast
1:14 PM 57.2 °F 55.4 °F 94% 29.82 in 3.0 mi NNE 8.1 mph - N/A   Overcast
1:33 PM 57.2 °F 55.4 °F 94% 29.81 in 3.0 mi NE 8.1 mph - N/A Rain Light Rain
1:54 PM 57.7 °F 56.1 °F 94% 29.81 in 3.0 mi NE 8.1 mph - N/A   Overcast
2:13 PM 58.1 °F 56.5 °F 94% 29.81 in 2.5 mi NNE 8.1 mph - N/A   Overcast
2:33 PM 58.1 °F 56.5 °F 94% 29.81 in 2.0 mi ENE 8.1 mph - N/A   Overcast
2:54 PM 56.8 °F 55.2 °F 94% 29.80 in 1.8 mi NE 9.2 mph - N/A   Overcast
3:13 PM 56.8 °F 55.4 °F 95% 29.79 in 2.5 mi NNE 8.1 mph - N/A   Overcast
3:33 PM 56.7 °F 55.2 °F 95% 29.79 in 2.0 mi NNE 5.8 mph - N/A   Overcast
3:54 PM 57.2 °F 55.6 °F 94% 29.78 in 2.0 mi NE 6.9 mph - N/A   Overcast
4:13 PM 57.7 °F 56.3 °F 95% 29.78 in 2.0 mi NNE 6.9 mph - N/A   Overcast
4:33 PM 59.0 °F 57.4 °F 94% 29.77 in 2.0 mi North 9.2 mph - N/A   Overcast
4:54 PM 59.0 °F 57.2 °F 94% 29.77 in 3.0 mi NNE 8.1 mph - N/A   Overcast
5:13 PM 59.4 °F 57.7 °F 94% 29.76 in 4.0 mi NNE 9.2 mph - N/A   Overcast
5:33 PM 60.4 °F 58.1 °F 92% 29.76 in 5.0 mi NNE 9.2 mph - N/A   Overcast
5:54 PM 59.0 °F 57.2 °F 94% 29.77 in 2.5 mi NE 6.9 mph - N/A   Overcast
6:13 PM 57.0 °F 55.2 °F 94% 29.77 in 1.0 mi NE 8.1 mph - N/A   Overcast
6:33 PM 56.7 °F 55.0 °F 94% 29.77 in 1.5 mi North 5.8 mph - N/A   Overcast
6:54 PM 56.5 °F 54.9 °F 94% 29.77 in 1.8 mi NE 3.5 mph - N/A   Overcast
7:13 PM 56.7 °F 55.2 °F 95% 29.76 in 1.0 mi NNE 4.6 mph - N/A   Overcast
7:33 PM 56.8 °F 55.6 °F 96% 29.75 in 1.2 mi North 4.6 mph - N/A   Overcast
7:54 PM 57.6 °F 56.3 °F 96% 29.75 in 7.0 mi NNW 5.8 mph - N/A   Overcast
8:13 PM 58.1 °F 56.7 °F 95% 29.74 in 2.0 mi North 4.6 mph - N/A Rain Light Rain
8:34 PM 58.8 °F 57.4 °F 95% 29.73 in 1.2 mi North 3.5 mph - N/A Rain Light Rain
8:54 PM 59.2 °F 58.1 °F 96% 29.74 in 5.0 mi Calm Calm - N/A Rain Light Rain
9:13 PM 59.7 °F 58.3 °F 95% 29.74 in 7.0 mi Calm Calm - N/A Rain Light Rain
9:34 PM 59.9 °F 58.6 °F 96% 29.74 in 7.0 mi North 3.5 mph - N/A   Overcast
9:54 PM 60.1 °F 58.8 °F 96% 29.74 in 7.0 mi NNE 3.5 mph - N/A   Overcast
10:13 PM 58.1 °F 56.7 °F 95% 29.75 in 5.0 mi East 3.5 mph - N/A   Overcast
10:34 PM 56.7 °F 55.4 °F 96% 29.75 in 5.0 mi Calm Calm - N/A   Overcast
10:53 PM 56.3 °F 55.0 °F 96% 29.75 in 7.0 mi NE 5.8 mph - N/A   Overcast
11:13 PM 56.3 °F 55.0 °F 96% 29.75 in 7.0 mi NE 3.5 mph - N/A   Overcast
11:34 PM 56.8 °F 55.6 °F 96% 29.74 in 5.0 mi ENE 3.5 mph - N/A   Overcast
11:53 PM 56.8 °F 55.6 °F 96% 29.74 in 5.0 mi Calm Calm - N/A   Overcast